Regional Weather Roundup
Issued by NWS Sterling, VA

Home | Current Version | Previous Version | Text Only | Print | Product List | Glossary Off
Versions: 1 2 3 4 5 6 7 8 9 10 11 12 13 14 15 16 17 18 19 20 21 22 23 24 25 26 27

000
ASUS41 KLWX 270810
RWRLWX

REGIONAL WEATHER ROUNDUP
NATIONAL WEATHER SERVICE BALTIMORE MD/WASHINGTON DC
400 AM EDT TUE SEP 27 2016

Note: "FAIR" indicates few or no clouds below 12,000 feet
with no significant weather and/or obstructions to visibility.
 TC=TEMPERATURE CELSIUS

 * =Non NWS site. Station does not report precipitation (e.g. rain,
    snow, etc.), thunder, or fog.

DCZ001-MDZ009-015-VAZ040>042-051-053>054-270900-
WASHINGTON METRO

CITY           SKY/WX    TMP DP  RH WIND       PRES   REMARKS
WASHINGTON NAT LGT RAIN  67  67 100 SW3       29.95F FOG
DULLES         LGT RAIN  65  63  93 SW3       29.95F
ANDREWS AFB    LGT RAIN  66  64  94 SW6       29.94S
FT BELVOIR     LGT RAIN  66  64  94 N2        29.94S FOG
QUANTICO       RAIN      67  65  93 W5        29.95F FOG
COLLEGE PARK*  CLOUDY    64  63  94 CALM      29.94F
LEESBURG*      CLOUDY    64  64 100 CALM      29.96F FOG
MANASSAS*      CLOUDY    66  66 100 CALM      29.96S
GAITHERSBURG*  CLOUDY    64  61  88 W3        29.99S

$$

MDZ006>007-011-014-270900-
BALTIMORE METRO

CITY           SKY/WX    TMP DP  RH WIND       PRES   REMARKS
BWI AIRPORT    LGT RAIN  65  64  97 SW5       29.93F
MD SCIENCE CTR   N/A     65  63  93 MISG      29.94F
ANNAPOLIS      RAIN      67  65  93 SW6       29.94S FOG
FORT MEADE*    CLOUDY    63  63 100 CALM      29.96F

$$

MDZ012-015-019>023-270900-
MARYLAND EASTERN SHORE

CITY           SKY/WX    TMP DP  RH WIND       PRES   REMARKS
OCEAN CITY     CLOUDY    72  68  87 SW8       29.95F
SALISBURY      CLOUDY    69  68  96 SW5       29.95F
BAY BRIDGE AP* CLOUDY    68  64  88 MISG      29.94F
CAMBRIDGE*     CLOUDY    68  64  88 CALM      29.94F

$$

MDZ017>025-270900-
SOUTHERN MARYLAND

CITY           SKY/WX    TMP DP  RH WIND       PRES   REMARKS
PATUXENT RIVER CLOUDY    68  64  87 SW9       29.94F
ST INIGOES     CLOUDY    69  65  86 SW9       29.94F
LEONARDTOWN*   CLOUDY    66  63  88 SW8       29.96F

$$

MDZ003>005-270900-
NORTH CENTRAL MARYLAND

CITY           SKY/WX    TMP DP  RH WIND       PRES   REMARKS
FREDERICK*     NOT AVBL
HAGERSTOWN APT CLOUDY    63  61  93 SW3       29.95F

$$

MDZ501>502-270900-
WESTERN MARYLAND

CITY           SKY/WX    TMP DP  RH WIND       PRES   REMARKS
OAKLAND*       CLOUDY    46  46 100 W3        30.04F
CUMBERLAND*    CLOUDY    61  52  72 N3        30.03F

$$

VAZ025>031-270900-
SHENANDOAH VALLEY

CITY           SKY/WX    TMP DP  RH WIND       PRES   REMARKS
WINCHESTER*    FOG       63  63 100 CALM      29.97S VSB 1
FRONT ROYAL*   CLOUDY    63  63 100 S3        29.95F
LURAY*         CLOUDY   N/A N/A N/A CALM      29.96F HAZE
NEW MARKET*    CLOUDY   N/A N/A N/A CALM      29.96F
STAUNTON*      MOCLDY    62  62  99 CALM      29.99F FOG
WAYNESBORO*    CLOUDY    64  63  95 SW5       29.99S

$$

WVZ021-048>050-054>055-270900-
EASTERN WEST VIRGINIA PANHANDLE

CITY           SKY/WX    TMP DP  RH WIND       PRES   REMARKS
MARTINSBURG    FOG       61  60  97 CALM      29.95F VSB<1/4
PETERSBURG*    CLOUDY    62  61  95 CALM      29.98S

$$

VAZ036>039-050-270900-
CENTRAL FOOTHILLS

CITY           SKY/WX    TMP DP  RH WIND       PRES   REMARKS
CHARLOTTESVILL CLOUDY    67  65  93 CALM      29.95F FOG
CULPEPER*      RAIN      66  66  99 CALM      29.96F
ORANGE*        RAIN      66  66 100 CALM      29.97F
GORDONSVILLE*  NOT AVBL
WARRENTON*     HVY RAIN  66  62  85 CALM      29.95S

$$

VAZ055>057-270900-
NORTH AND CENTRAL PIEDMONT

CITY           SKY/WX    TMP DP  RH WIND       PRES   REMARKS
FREDERICKSBRG* RAIN      67  67 100 W3        29.94F
STAFFORD*      HVY RAIN  65  65 100 CALM      29.99F

$$

NCZ024-NYZ072-PAZ021-071-VAZ022-071-270900-
OTHER REGIONAL OBSERVATIONS

CITY           SKY/WX    TMP DP  RH WIND       PRES   REMARKS
NEW YORK CITY  LGT RAIN  66  64  93 VRB7      29.93S FOG
PHILADELPHIA   CLOUDY    69  64  84 SW13      29.92F
PITTSBURGH     PTCLDY    54  53  97 S5        29.97F
ROANOKE        HVY RAIN  67  67 100 CALM      30.01F FOG
RICHMOND       LGT RAIN  67  65  93 SW6       29.96F
RALEIGH        CLOUDY    68  67  96 S6        29.98F

$$

ANZ530>537-270900-
MARINE OBSERVATIONS

STATION/POSITION TIME  TEMP    WIND        PRES
                       AIR SEA DIR/SP/G
                 (UTC) (F)     (DEG/KT/KT) (MB)
THOMAS PT LIGHT  0800   67 74  270/ 10/ 11 1015.2F
BALT KEY BRIDGE  0742   65     240/  7/  9 1013.7F
COVE POINT       0742   68     240/ 11/ 13 1014.6F
LEWISETTA        0742   69 73  240/  7/  9 1013.8F
SOLOMONS ISLAND  0742   70 75  230/  9/ 12   N/A
PINEY POINT      0748          260/  4/  5   N/A

$$





USA.gov is the U.S. government's official web portal to all federal, state and local government web resources and services.